FW7134 Weather Reports


time (UTC)temp
C
wind
direction
speed
KPH
gust
KPH
rain 1hr
cm
rain 24hr
cm
rain mn
cm
humidity
%
barometer
mb
20260507201528 12 193 4.8 12.9 0.03 2.13 2.13 100 1000.7
20260507200027 12 200 8.0 12.9 0.08 2.13 2.13 100 1001.1
20260507194535 11 161 4.8 12.9 0.20 2.13 2.13 100 1000.8
20260507193028 10 161 3.2 16.1 0.28 2.11 2.11 100 1000.4
20260507191525 10 153 8.0 20.9 0.36 2.11 2.11 100 1000.2
20260507190036 12 143 9.7 17.7 0.38 2.06 2.06 100 1001.2
20260507184526 12 186 8.0 19.3 0.43 1.93 1.93 100 1001.8
20260507183018 12 183 11.3 16.1 0.53 1.83 1.83 100 1002.6
20260507181515 13 183 8.0 16.1 0.71 1.73 1.73 100 1002.5
20260507180018 13 178 9.7 16.1 0.94 1.68 1.68 100 1002.9
20260507174514 13 182 9.7 17.7 1.07 1.50 1.50 100 1002.9
20260507173033 13 196 14.5 20.9 1.22 1.27 1.27 100 1003.2
20260507171511 13 205 17.7 29.0 0.94 0.97 0.97 100 1003.8
20260507170018 13 210 16.1 33.8 0.71 0.71 0.71 100 1003.4
20260507164520 13 202 20.9 35.4 0.41 0.41 0.41 100 1003.6
20260507163009 13 216 22.5 38.6 0.05 0.05 0.05 100 1003.3
20260507161508 13 192 22.5 43.5 0.03 0.03 0.03 100 1003.1
20260507160006 14 184 24.1 41.8 0.00 0.00 0.00 100 1003.3
20260507154505 15 159 20.9 46.7 0.00 0.00 0.00 100 1003.8
20260507153003 15 149 20.9 49.9 0.00 0.00 0.00 100 1004.2
20260507151601 15 174 16.1 40.2 0.00 0.00 0.00 100 1004.6
20260507150101 15 193 16.1 45.1 0.00 0.00 0.00 100 1004.5
20260507150001 15 190 17.7 45.1 0.00 0.00 0.00 100 1004.6
20260507144601 14 180 19.3 38.6 0.00 0.00 0.00 100 1005.1
20260507143114 13 165 24.1 43.5 0.00 0.00 0.00 100 1005.7
20260507141601 13 167 19.3 37.0 0.00 0.00 0.00 100 1005.8
20260507140054 15 172 27.4 54.7 0.00 0.00 0.00 100 1005.6
20260507134553 15 200 30.6 70.8 0.00 0.00 0.00 100 1005.9
20260507133053 15 161 22.5 56.3 0.00 0.00 0.00 100 1006.2
20260507131555 15 146 17.7 46.7 0.00 0.00 0.00 100 1006.2
20260507130053 15 180 27.4 43.5 0.00 0.00 0.00 100 1006.3
20260507124556 15 171 24.1 43.5 0.00 0.00 0.00 100 1006.5
20260507123044 15 163 19.3 54.7 0.00 0.00 0.00 100 1006.7
20260507121543 15 225 25.7 53.1 0.00 0.00 0.00 100 1006.7
20260507120040 15 178 32.2 54.7 0.00 0.00 0.00 100 1006.6
20260507114555 15 202 24.1 45.1 0.00 0.00 0.00 100 1006.5
20260507113058 15 190 25.7 48.3 0.00 0.00 0.00 100 1006.4
20260507111537 13 178 25.7 48.3 0.00 0.00 0.00 100 1006.6
20260507110027 13 186 25.7 43.5 0.00 0.00 0.00 100 1007.0
20260507104529 13 163 20.9 40.2 0.00 0.00 0.00 100 1006.9
20260507103022 13 182 17.7 45.1 0.00 0.00 0.00 100 1007.2
20260507101519 13 188 22.5 37.0 0.00 0.00 0.00 100 1007.3
20260507100014 12 192 25.7 45.1 0.00 0.00 0.00 100 1007.5
20260507094511 12 178 17.7 33.8 0.00 0.00 0.00 100 1007.8
20260507093009 12 182 12.9 40.2 0.00 0.00 0.00 100 1008.1
20260507091508 11 171 11.3 19.3 0.00 0.00 0.00 100 1008.5
20260507090007 9 162 4.8 17.7 0.00 0.00 0.00 100 1008.8
20260507084507 11 157 8.0 19.3 0.00 0.00 0.00 100 1008.5
20260507083003 12 182 12.9 29.0 0.00 0.00 0.00 100 1009.0
20260507081605 11 169 14.5 25.7 0.00 0.00 0.00 100 1009.7
20260507080059 11 175 8.0 16.1 0.00 0.00 0.00 100 1009.7
20260507074600 11 186 12.9 17.7 0.00 0.00 0.00 100 1010.0
20260507073101 11 188 9.7 16.1 0.00 0.00 0.00 100 1010.2
20260507071555 11 166 12.9 20.9 0.00 0.00 0.00 100 1010.0
20260507070057 11 173 12.9 33.8 0.00 0.00 0.00 100 1010.0
20260507064553 11 212 17.7 29.0 0.00 0.00 0.00 100 1010.9
20260507063051 11 193 17.7 29.0 0.00 0.00 0.00 100 1011.3
20260507061648 11 199 20.9 35.4 0.00 0.00 0.00 100 1011.5
20260507060045 11 192 20.9 35.4 0.00 0.00 0.00 100 1011.3
20260507054544 11 203 16.1 25.7 0.00 0.00 0.00 100 1011.4
20260507053042 10 197 14.5 22.5 0.00 0.00 0.00 100 1011.5
20260507051540 10 190 14.5 20.9 0.00 0.00 0.00 100 1011.9
20260507050041 11 182 11.3 19.3 0.00 0.00 0.00 100 1012.3
20260507044536 10 175 12.9 19.3 0.00 0.00 0.00 100 1012.7
20260507043035 10 163 6.4 16.1 0.00 0.00 0.00 100 1013.1
20260507041529 10 171 6.4 11.3 0.00 0.00 0.00 100 1013.6
20260507040027 9 150 1.6 8.0 0.00 0.00 0.00 100 1013.8
20260507034531 10 143 8.0 14.5 0.00 0.00 0.00 100 1014.2
20260507033021 10 150 1.6 8.0 0.00 0.00 0.00 100 1014.6
20260507031519 9 150 0.0 0.0 0.00 0.00 0.00 100 1014.9
20260507030015 10 150 0.0 1.6 0.00 0.00 0.00 100 1015.0
20260507024515 10 150 0.0 4.8 0.00 0.00 0.00 100 1015.3
20260507023011 10 141 0.0 4.8 0.00 0.00 0.00 100 1015.3
20260507021510 10 141 1.6 4.8 0.00 0.00 0.00 100 1015.7
20260507020007 10 141 0.0 3.2 0.00 0.00 0.00 100 1015.7
20260507014506 10 141 0.0 12.9 0.00 0.00 0.00 100 1015.8
20260507013005 10 156 4.8 11.3 0.00 0.00 0.00 100 1015.8
20260507011501 11 130 4.8 16.1 0.00 0.00 0.00 100 1016.2
20260507010058 11 90 8.0 14.5 0.00 0.00 0.00 100 1016.1
20260507004555 12 116 3.2 14.5 0.00 0.00 0.00 100 1015.8
20260507003106 14 167 8.0 22.5 0.00 0.00 0.00 100 1015.8
20260507001612 15 246 11.3 22.5 0.00 0.00 0.00 100 1015.6
20260507000054 15 211 9.7 22.5 0.00 0.00 0.00 100 1015.6
20260506234554 15 195 6.4 32.2 0.00 0.00 0.00 100 1015.3
20260506233051 15 196 20.9 35.4 0.00 0.00 0.00 100 1015.2
20260506231559 16 209 20.9 29.0 0.00 0.00 0.00 100 1014.9
20260506230056 16 230 24.1 61.2 0.00 0.00 0.00 100 1014.6
20260506224550 16 192 35.4 61.2 0.00 0.00 0.00 100 1014.6
20260506223049 17 236 24.1 51.5 0.00 0.00 0.00 100 1014.5
20260506221603 17 217 27.4 43.5 0.00 0.00 0.00 100 1014.5
20260506220048 17 192 27.4 41.8 0.00 0.00 0.00 100 1014.3
20260506214551 17 212 33.8 51.5 0.00 0.00 0.00 100 1014.3
20260506213047 18 213 24.1 37.0 0.00 0.00 0.00 100 1014.5
20260506211546 18 203 24.1 46.7 0.00 0.00 0.00 89 1014.8
20260506210054 18 207 35.4 56.3 0.00 0.00 0.00 84 1014.6
20260506204547 18 192 20.9 40.2 0.00 0.00 0.00 100 1014.5
20260506203045 19 198 24.1 46.7 0.00 0.00 0.00 100 1014.4